Location: Nied?wied?
(53.3665°N, 14.8184°E)
Time: 23:42:20
(UTC+00:00)

Cosmos 2074 Rocket - Pass Details

Date: 03 March 2021
Orbit: 966 x 987 km, 82.9° (Epoch: 11 April)

Event Time Altitude Azimuth Distance (km) Brightness Sun altitude
Rises 17:35:22 0° 187° (S) 3,677 7.1 -8.6°
Reaches altitude 10° 17:37:52 10° 187° (S) 2,731 6.4 -9.0°
Maximum altitude 17:44:09 88° 101° (E) 987 4.0 -9.9°
Drops below altitude 10° 17:50:26 10° 11° (N) 2,735 6.3 -10.9°
Sets 17:52:57 0° 11° (NNE) 3,683 6.9 -11.3°
